• In Russia
  • List of Countries
  • For 7 days
  • Water Temperature
  • Satellite Maps
  • Weather Map
  • Weather Widgets
  • user-avatar
    Login

    Hourly Weather Baku

    Today, 27 July, Thursday

    Time Temperature Precipitation Wind Pressure Humidity
    00:00 +29°C° 0 mm 8 mps 754 mmHg 55%
    01:00 +29°C° 0 mm 8 mps 754 mmHg 55%
    02:00 +29°C° 0 mm 8 mps 754 mmHg 54%
    03:00 +29°C° 0 mm 7 mps 754 mmHg 53%
    04:00 +29°C° 0 mm 7 mps 755 mmHg 52%
    05:00 +29°C° 0 mm 7 mps 755 mmHg 51%
    06:00 +29°C° 0 mm 7 mps 755 mmHg 50%
    07:00 +32°C° 0 mm 7 mps 755 mmHg 46%
    08:00 +33°C° 0 mm 7 mps 755 mmHg 43%
    09:00 +33°C° 0 mm 7 mps 755 mmHg 40%
    10:00 +34°C° 0 mm 6 mps 755 mmHg 39%
    11:00 +35°C° 0 mm 6 mps 755 mmHg 37%
    12:00 +35°C° 0 mm 6 mps 755 mmHg 36%
    13:00 +35°C° 0 mm 5 mps 755 mmHg 36%
    14:00 +35°C° 0 mm 5 mps 755 mmHg 36%
    15:00 +35°C° 0 mm 5 mps 755 mmHg 37%
    16:00 +35°C° 0 mm 5 mps 755 mmHg 38%
    17:00 +35°C° 0 mm 5 mps 755 mmHg 38%
    18:00 +34°C° 0 mm 5 mps 755 mmHg 39%
    19:00 +34°C° 0 mm 4 mps 755 mmHg 41%
    20:00 +33°C° 0 mm 3 mps 755 mmHg 42%
    21:00 +33°C° 0 mm 3 mps 755 mmHg 44%
    22:00 +33°C° 0 mm 3 mps 755 mmHg 45%
    23:00 +31°C° 0 mm 2 mps 755 mmHg 46%

    Tomorrow, 28 July, Friday

    Time Temperature Precipitation Wind Pressure Humidity
    00:00 +31°C° 0 mm 2 mps 755 mmHg 47%
    01:00 +31°C° 0 mm 2 mps 755 mmHg 47%
    02:00 +30°C° 0 mm 2 mps 755 mmHg 48%
    03:00 +30°C° 0 mm 2 mps 755 mmHg 48%
    04:00 +30°C° 0 mm 2 mps 755 mmHg 47%
    05:00 +31°C° 0 mm 2 mps 755 mmHg 45%
    06:00 +31°C° 0 mm 2 mps 755 mmHg 43%
    07:00 +32°C° 0 mm 2 mps 755 mmHg 40%
    08:00 +35°C° 0 mm 3 mps 755 mmHg 36%
    09:00 +36°C° 0 mm 3 mps 755 mmHg 33%
    10:00 +37°C° 0 mm 4 mps 755 mmHg 31%
    11:00 +38°C° 0 mm 4 mps 755 mmHg 29%
    12:00 +40°C° 0 mm 5 mps 755 mmHg 27%
    13:00 +40°C° 0 mm 5 mps 754 mmHg 28%
    14:00 +40°C° 0 mm 5 mps 754 mmHg 29%
    15:00 +39°C° 0 mm 6 mps 754 mmHg 29%
    16:00 +38°C° 0 mm 6 mps 754 mmHg 32%
    17:00 +36°C° 0 mm 5 mps 754 mmHg 34%
    18:00 +35°C° 0 mm 5 mps 753 mmHg 37%
    19:00 +35°C° 0 mm 5 mps 754 mmHg 41%
    20:00 +34°C° 0 mm 4 mps 754 mmHg 45%
    21:00 +33°C° 0 mm 4 mps 754 mmHg 48%
    22:00 +33°C° 0 mm 3 mps 754 mmHg 50%
    23:00 +31°C° 0 mm 3 mps 754 mmHg 52%

    Day after tomorrow, 29 July, Saturday

    Time Temperature Precipitation Wind Pressure Humidity
    00:00 +31°C° 0 mm 3 mps 754 mmHg 54%
    01:00 +31°C° 0 mm 3 mps 754 mmHg 53%
    02:00 +31°C° 0 mm 2 mps 754 mmHg 53%
    03:00 +31°C° 0 mm 2 mps 754 mmHg 53%
    04:00 +31°C° 0 mm 2 mps 754 mmHg 52%
    05:00 +31°C° 0 mm 3 mps 754 mmHg 52%
    06:00 +31°C° 0 mm 3 mps 754 mmHg 51%
    07:00 +33°C° 0 mm 3 mps 754 mmHg 47%
    08:00 +34°C° 0 mm 4 mps 754 mmHg 44%
    09:00 +35°C° 0 mm 4 mps 754 mmHg 40%
    10:00 +36°C° 0 mm 4 mps 754 mmHg 39%
    11:00 +37°C° 0 mm 5 mps 754 mmHg 37%
    12:00 +39°C° 0 mm 5 mps 754 mmHg 35%
    13:00 +39°C° 0 mm 5 mps 753 mmHg 35%
    14:00 +39°C° 0 mm 5 mps 753 mmHg 34%
    15:00 +40°C° 0 mm 5 mps 753 mmHg 34%
    16:00 +38°C° 0 mm 4 mps 753 mmHg 34%
    17:00 +37°C° 0 mm 4 mps 752 mmHg 35%
    18:00 +37°C° 0 mm 4 mps 752 mmHg 35%
    19:00 +36°C° 0 mm 3 mps 753 mmHg 37%
    20:00 +35°C° 0 mm 2 mps 753 mmHg 39%
    21:00 +34°C° 0 mm 1 mps 754 mmHg 41%
    22:00 +35°C° 0 mm 2 mps 754 mmHg 42%
    23:00 +34°C° 0 mm 3 mps 754 mmHg 42%

    30 July, Sunday

    Time Temperature Precipitation Wind Pressure Humidity
    00:00 +34°C° 0 mm 4 mps 754 mmHg 43%
    01:00 +34°C° 0 mm 5 mps 755 mmHg 46%
    02:00 +33°C° 0 mm 7 mps 755 mmHg 49%
    03:00 +33°C° 0 mm 8 mps 755 mmHg 51%
    04:00 +32°C° 0 mm 9 mps 755 mmHg 55%
    05:00 +32°C° 0 mm 11 mps 756 mmHg 58%
    06:00 +32°C° 0 mm 12 mps 756 mmHg 61%
    07:00 +32°C° 0 mm 12 mps 757 mmHg 59%
    08:00 +33°C° 0 mm 13 mps 757 mmHg 57%
    09:00 +33°C° 0 mm 14 mps 757 mmHg 55%
    10:00 +34°C° 0 mm 14 mps 757 mmHg 54%
    11:00 +34°C° 0 mm 14 mps 757 mmHg 52%
    12:00 +34°C° 0 mm 14 mps 757 mmHg 50%
    13:00 +34°C° 0 mm 14 mps 757 mmHg 51%
    14:00 +34°C° 0 mm 14 mps 757 mmHg 51%
    15:00 +33°C° 0 mm 13 mps 757 mmHg 52%
    16:00 +33°C° 0 mm 13 mps 757 mmHg 53%
    17:00 +32°C° 0 mm 13 mps 757 mmHg 54%
    18:00 +32°C° 0 mm 12 mps 757 mmHg 55%
    19:00 +32°C° 0 mm 12 mps 757 mmHg 55%
    20:00 +31°C° 0 mm 12 mps 758 mmHg 55%
    21:00 +31°C° 0 mm 11 mps 758 mmHg 54%
    22:00 +31°C° 0 mm 11 mps 758 mmHg 53%
    23:00 +31°C° 0 mm 11 mps 758 mmHg 52%

    31 July, Monday

    Time Temperature Precipitation Wind Pressure Humidity
    00:00 +31°C° 0 mm 10 mps 758 mmHg 51%
    01:00 +31°C° 0 mm 10 mps 758 mmHg 51%
    02:00 +31°C° 0 mm 10 mps 758 mmHg 50%
    03:00 +31°C° 0 mm 10 mps 758 mmHg 49%
    04:00 +31°C° 0 mm 9 mps 759 mmHg 49%
    05:00 +31°C° 0 mm 9 mps 759 mmHg 49%
    06:00 +32°C° 0 mm 9 mps 759 mmHg 49%
    07:00 +32°C° 0 mm 9 mps 759 mmHg 47%
    08:00 +33°C° 0 mm 10 mps 760 mmHg 45%
    09:00 +34°C° 0 mm 10 mps 760 mmHg 43%
    10:00 +34°C° 0 mm 10 mps 760 mmHg 43%
    11:00 +34°C° 0 mm 10 mps 759 mmHg 44%
    12:00 +36°C° 0 mm 10 mps 759 mmHg 44%
    13:00 +34°C° 0 mm 9 mps 759 mmHg 45%
    14:00 +34°C° 0 mm 9 mps 759 mmHg 45%
    15:00 +34°C° 0 mm 9 mps 759 mmHg 45%
    16:00 +34°C° 0 mm 9 mps 759 mmHg 48%
    17:00 +33°C° 0 mm 9 mps 759 mmHg 50%
    18:00 +32°C° 0 mm 9 mps 759 mmHg 52%
    19:00 +32°C° 0 mm 9 mps 759 mmHg 54%
    20:00 +31°C° 0 mm 9 mps 759 mmHg 56%
    21:00 +31°C° 0 mm 9 mps 760 mmHg 59%
    22:00 +31°C° 0 mm 9 mps 760 mmHg 58%
    23:00 +29°C° 0 mm 9 mps 760 mmHg 58%

    1 August, Tuesday

    Time Temperature Precipitation Wind Pressure Humidity
    00:00 +29°C° 0 mm 8 mps 760 mmHg 58%
    01:00 +29°C° 0 mm 8 mps 760 mmHg 57%
    02:00 +29°C° 0 mm 8 mps 760 mmHg 57%
    03:00 +29°C° 0 mm 8 mps 760 mmHg 56%
    04:00 +29°C° 0 mm 8 mps 760 mmHg 55%
    05:00 +29°C° 0 mm 7 mps 761 mmHg 54%
    06:00 +29°C° 0 mm 7 mps 761 mmHg 53%
    07:00 +30°C° 0 mm 7 mps 761 mmHg 51%
    08:00 +32°C° 0 mm 7 mps 761 mmHg 48%
    09:00 +33°C° 0 mm 7 mps 762 mmHg 45%
    10:00 +33°C° 0 mm 7 mps 761 mmHg 44%
    11:00 +34°C° 0 mm 6 mps 761 mmHg 43%
    12:00 +34°C° 0 mm 6 mps 761 mmHg 41%
    13:00 +34°C° 0 mm 6 mps 761 mmHg 42%
    14:00 +34°C° 0 mm 6 mps 761 mmHg 43%
    15:00 +34°C° 0 mm 6 mps 761 mmHg 44%
    16:00 +33°C° 0 mm 6 mps 761 mmHg 48%
    17:00 +33°C° 0 mm 6 mps 761 mmHg 52%
    18:00 +32°C° 0 mm 6 mps 761 mmHg 56%
    19:00 +30°C° 0 mm 6 mps 761 mmHg 59%
    20:00 +30°C° 0 mm 6 mps 762 mmHg 61%
    21:00 +29°C° 0 mm 6 mps 762 mmHg 64%
    22:00 +29°C° 0 mm 5 mps 762 mmHg 64%
    23:00 +29°C° 0 mm 5 mps 762 mmHg 64%
    Show more